Ingonish Beach, Nova Scotia

10:14 AM ADT on June 27, 2017 (GMT -0300)
Ingonish Beach

Weather History for CXIB - November, 2012

Change the Weather History Date:

Friday, November 30, 2012

  Actual Average Record
Temperature  
Mean Temperature 22 °F -  
Max Temperature 26 °F - - ()
Min Temperature 19 °F - - ()
Degree Days  
Heating Degree Days 42    
Moisture  
Dew Point 17 °F    
Average Humidity 74    
Maximum Humidity 91    
Minimum Humidity 54    
Precipitation  
Precipitation 0.08 in - - ()
Sea Level Pressure  
Sea Level Pressure 30.00 in    
Wind  
Wind Speed 5 mph ()    
Max Wind Speed 9 mph    
Max Gust Speed 22 mph    
T = Trace of Precipitation, MM = Missing Value Source: Averaged Metar Reports

Daily Weather History Graph

Daily Weather History Graph

Search for Another Location

Airport or City:

Trip Planner

Search our weather history database for the weather conditions in past years. The results will help you decide how hot, cold, wet, or windy it might be!

Date:

Astronomy

Nov. 30, 2012 Rise Set
Actual Time 7:24 AM AST 4:15 PM AST
Civil Twilight 6:50 AM AST 4:50 PM AST
Nautical Twilight 6:12 AM AST 5:28 PM AST
Astronomical Twilight 5:36 AM AST 6:04 PM AST
Moon 6:07 PM AST (11/30) 8:52 AM AST (11/30)
Length of Visible Light 9h 59m
Length of Day
8h 51m
Waning Gibbous, 96% of the Moon is Illuminated
Nov 30
Waning Gibbous
Dec 6
Last Quarter
Dec 13
New
Dec 20
First Quarter
Dec 28
Full

Hourly Weather History & Observations

Time (AST) Temp. Windchill Dew Point Humidity Pressure Visibility Wind Dir Wind Speed Gust Speed Precip Events Conditions
12:00 AM 25.9 °F 20.3 °F 22.5 °F 87% 29.86 in - West 4.6 mph - 0.01 in   Unknown
1:00 AM 24.6 °F 17.7 °F 20.5 °F 84% 29.86 in - West 5.8 mph - 0.01 in   Unknown
2:00 AM 24 °F - 21 °F 84% 29.87 in - West 3.5 mph - -  
2:00 AM 24.3 °F 19.9 °F 21.2 °F 88% 29.87 in - West 3.5 mph - 0.03 in   Unknown
3:00 AM 23.5 °F 16.4 °F 17.1 °F 76% 29.87 in - West 5.8 mph - N/A   Unknown
4:00 AM 23.0 °F 18.4 °F 17.4 °F 79% 29.87 in - West 3.5 mph - N/A   Unknown
5:00 AM 22.1 °F 13.7 °F 16.7 °F 80% 29.86 in - West 6.9 mph 18.4 mph N/A   Unknown
6:00 AM 20.5 °F 11.7 °F 18.3 °F 91% 29.86 in - West 6.9 mph - 0.02 in   Unknown
7:00 AM 20.3 °F 12.5 °F 12.6 °F 72% 29.88 in - West 5.8 mph - N/A   Unknown
8:00 AM 20 °F - 10 °F 54% 29.90 in - WSW 4.6 mph - -  
8:00 AM 20.3 °F 13.8 °F 10.4 °F 66% 29.90 in - WSW 4.6 mph - N/A   Unknown
9:00 AM 21.4 °F 16.6 °F 15.1 °F 77% 29.93 in - West 3.5 mph - 0.02 in   Unknown
10:00 AM 23.0 °F 13.1 °F 11.7 °F 62% 29.94 in - West 9.2 mph 21.9 mph N/A   Unknown
11:00 AM 24.8 °F 17.9 °F 13.1 °F 61% 29.96 in - West 5.8 mph - N/A   Unknown
12:00 PM 23.9 °F 16.8 °F 18.1 °F 79% 29.97 in - West 5.8 mph - 0.02 in   Unknown
1:00 PM 26.1 °F 18.4 °F 13.8 °F 60% 29.99 in - West 6.9 mph 21.9 mph N/A   Unknown
2:00 PM 24 °F - 17 °F 66% 30.01 in - West 4.6 mph - -  
2:00 PM 24.4 °F 18.6 °F 17.2 °F 74% 30.01 in - West 4.6 mph - 0.01 in   Unknown
3:00 PM 24.4 °F 17.5 °F 15.4 °F 69% 30.04 in - West 5.8 mph - N/A   Unknown
4:00 PM 23.9 °F 16.8 °F 18.3 °F 79% 30.06 in - West 5.8 mph - N/A   Unknown
5:00 PM 24.6 °F 17.7 °F 16.7 °F 72% 30.09 in - West 5.8 mph - N/A   Unknown
6:00 PM 25.0 °F 17.1 °F 15.3 °F 67% 30.09 in - West 6.9 mph 19.6 mph N/A   Unknown
7:00 PM 25.2 °F 20.9 °F 16.5 °F 70% 30.15 in - WSW 3.5 mph - N/A   Unknown
8:00 PM 25 °F - 18 °F 63% 30.19 in - West 5.8 mph - -  
8:00 PM 25.0 °F 18.1 °F 17.6 °F 74% 30.19 in - West 5.8 mph 20.7 mph N/A   Unknown
9:00 PM 24.8 °F 16.9 °F 18.9 °F 78% 30.22 in - West 6.9 mph 18.4 mph N/A   Unknown
10:00 PM 24.8 °F - 21.6 °F 87% 30.23 in - West 2.3 mph - 0.02 in   Unknown
11:00 PM 25.7 °F 19.0 °F 19.2 °F 76% 30.24 in - West 5.8 mph - 0.02 in   Unknown